This is the latest recevied weather packets stored in our database for station/object KE8RXN. If no packets are shown the sender has not sent any weather packets the latest 10 day(s).
| Time | Temp. | Humidity | Pressure | Rain* | Wind** | Luminosity | Snow |
|---|---|---|---|---|---|---|---|
| 1777483078 | 8.33° C | 98% | 1015.8 hPa | 3.05 mm | - | 148 W/m² | - |
| 1777482776 | 8.33° C | 98% | 1016.1 hPa | 4.83 mm | - | 136 W/m² | - |
| 1777482472 | 8.33° C | 97% | 1016 hPa | 3.05 mm | - | 85 W/m² | - |
| 1777482170 | 8.33° C | 98% | 1016.1 hPa | 1.27 mm | - | 79 W/m² | - |
| 1777481867 | 8.33° C | 97% | 1016.1 hPa | 1.78 mm | - | 62 W/m² | - |
| 1777481564 | 8.33° C | 97% | 1016.1 hPa | 1.78 mm | - | 49 W/m² | - |
| 1777481261 | 8.33° C | 96% | 1016.2 hPa | 1.27 mm | - | 60 W/m² | - |
| 1777480958 | 8.89° C | 96% | 1016.2 hPa | 3.05 mm | - | 69 W/m² | - |
| 1777480654 | 8.89° C | 96% | 1016.1 hPa | 1.78 mm | - | 76 W/m² | - |
| 1777480351 | 8.89° C | 95% | 1016.1 hPa | 1.27 mm | - | 98 W/m² | - |
| 1777480047 | 8.89° C | 95% | 1016.1 hPa | 1.27 mm | - | 73 W/m² | - |
| 1777479743 | 8.89° C | 95% | 1016.1 hPa | 0 mm | - | 69 W/m² | - |
| 1777479441 | 8.89° C | 94% | 1016 hPa | 1.78 mm | - | 62 W/m² | - |
| 1777479137 | 9.44° C | 94% | 1016.1 hPa | 1.78 mm | - | 55 W/m² | - |
| 1777478835 | 9.44° C | 93% | 1016.1 hPa | 0 mm | - | 87 W/m² | - |
| 1777478531 | 9.44° C | 92% | 1016.3 hPa | 0 mm | - | 83 W/m² | - |
| 1777478228 | 10° C | 91% | 1016.1 hPa | 0 mm | - | 67 W/m² | - |
| 1777477924 | 10° C | 90% | 1016.2 hPa | 0 mm | - | 81 W/m² | - |
| 1777477619 | 10° C | 88% | 1016.1 hPa | 0 mm | - | 134 W/m² | - |
| 1777477316 | 10° C | 88% | 1016.1 hPa | 0 mm | - | 145 W/m² | - |
| 1777477013 | 10° C | 88% | 1016.2 hPa | 0 mm | - | 133 W/m² | - |
| 1777476711 | 10° C | 86% | 1016 hPa | 0 mm | - | 114 W/m² | - |
| 1777476407 | 10° C | 86% | 1016.2 hPa | 0 mm | - | 130 W/m² | - |
| 1777476104 | 10° C | 86% | 1016.1 hPa | 0 mm | - | 147 W/m² | - |
| 1777475799 | 10.56° C | 85% | 1016.2 hPa | 0 mm | - | 166 W/m² | - |
* Rain latest hour (hover to see other rain measurements)
** Current wind speed in m/s (hover to see current wind gust speed)